Blythe, CA

12:19 PM PDT on May 24, 2017 (GMT -0700)
Blythe

Weather History for KBLH - August, 2013

Change the Weather History Date:

Wednesday, August 21, 2013

  Actual Average Record
Temperature  
Mean Temperature 96 °F -  
Max Temperature 109 °F 105 °F 113 °F (1998)
Min Temperature 84 °F 80 °F 69 °F (1996)
Cooling Degree Days 32    
Growing Degree Days 46 (Base 50)    
Moisture  
Dew Point 57 °F    
Average Humidity 27    
Maximum Humidity 40    
Minimum Humidity 16    
Precipitation  
Precipitation 0.00 in - - ()
Sea Level Pressure  
Sea Level Pressure 29.76 in    
Wind  
Wind Speed 10 mph (SSW)    
Max Wind Speed 29 mph    
Max Gust Speed 37 mph    
Visibility 10 miles    
Events Thunderstorm    
Averages and records for this station are not official NWS values.
T = Trace of Precipitation, MM = Missing Value Source: NWS Daily Summary

Daily Weather History Graph

Daily Weather History Graph

Search for Another Location

Airport or City:

Trip Planner

Search our weather history database for the weather conditions in past years. The results will help you decide how hot, cold, wet, or windy it might be!

Date:

Astronomy

Aug. 21, 2013 Rise Set
Actual Time 6:05 AM PDT 7:17 PM PDT
Civil Twilight 5:39 AM PDT 7:43 PM PDT
Nautical Twilight 5:08 AM PDT 8:14 PM PDT
Astronomical Twilight 4:36 AM PDT 8:46 PM PDT
Moon 7:35 PM PDT (8/21) 6:45 AM PDT (8/21)
Length of Visible Light 14h 04m
Length of Day
13h 12m
Full, 99% of the Moon is Illuminated
Aug 21
Full
Aug 28
Last Quarter
Sep 5
New
Sep 12
First Quarter
Sep 19
Full

Hourly Weather History & Observations

Time (PDT) Temp. Heat Index Dew Point Humidity Pressure Visibility Wind Dir Wind Speed Gust Speed Precip Events Conditions
12:52 AM 91.9 °F 90.0 °F 55.0 °F 29% 29.73 in 10.0 mi South 16.1 mph - N/A   Clear
1:52 AM 91.9 °F 91.2 °F 59.0 °F 33% 29.74 in 10.0 mi South 13.8 mph - N/A   Clear
2:52 AM 95.0 °F 92.7 °F 54.0 °F 25% 29.73 in 10.0 mi SW 15.0 mph - N/A   Clear
3:52 AM 91.0 °F 89.7 °F 57.0 °F 32% 29.75 in 10.0 mi SSW 10.4 mph - N/A   Clear
4:52 AM 91.0 °F 89.7 °F 57.0 °F 32% 29.76 in 10.0 mi SSW 6.9 mph - N/A   Clear
5:52 AM 90.0 °F 88.6 °F 57.0 °F 33% 29.77 in 10.0 mi SSE 6.9 mph - N/A   Clear
6:52 AM 84.9 °F 84.2 °F 57.9 °F 40% 29.79 in 10.0 mi East 5.8 mph - N/A   Clear
7:52 AM 89.1 °F 88.2 °F 59.0 °F 36% 29.80 in 10.0 mi Calm Calm - N/A   Clear
8:52 AM 93.9 °F 93.6 °F 60.1 °F 32% 29.81 in 10.0 mi South 6.9 mph - N/A   Clear
9:52 AM 97.0 °F 97.4 °F 61.0 °F 30% 29.81 in 10.0 mi South 6.9 mph - N/A   Clear
10:52 AM 100.0 °F 99.7 °F 57.9 °F 25% 29.82 in 10.0 mi South 6.9 mph - N/A   Clear
11:52 AM 102.9 °F 103.0 °F 57.9 °F 23% 29.81 in 10.0 mi Calm Calm - N/A   Clear
12:52 PM 106.0 °F 105.1 °F 55.0 °F 19% 29.79 in 10.0 mi South 5.8 mph - N/A   Clear
1:52 PM 108.0 °F 107.3 °F 55.9 °F 18% 29.77 in 10.0 mi Variable 6.9 mph - N/A   Clear
2:52 PM 109.0 °F 107.4 °F 53.1 °F 16% 29.74 in 10.0 mi South 8.1 mph - N/A   Partly Cloudy
3:52 PM 108.0 °F - 52.0 °F 16% 29.71 in 10.0 mi South 6.9 mph - N/A   Partly Cloudy
4:52 PM 109.0 °F 107.4 °F 53.1 °F 16% 29.69 in 10.0 mi SSW 8.1 mph - N/A   Partly Cloudy
5:52 PM 107.1 °F 106.0 °F 55.0 °F 18% 29.69 in 10.0 mi SSE 8.1 mph - N/A   Partly Cloudy
6:52 PM 106.0 °F 104.5 °F 54.0 °F 18% 29.70 in 10.0 mi SE 6.9 mph - N/A   Clear
7:52 PM 99.0 °F 98.1 °F 57.9 °F 25% 29.74 in 8.0 mi West 28.8 mph 36.8 mph N/A   Clear
8:14 PM 96.8 °F 97.1 °F 60.8 °F 30% 29.76 in 8.0 mi West 19.6 mph - N/A Thunderstorm Partly Cloudy
8:29 PM 98.6 °F 97.6 °F 57.2 °F 25% 29.76 in 10.0 mi West 12.7 mph - N/A   Clear
8:52 PM 98.1 °F 97.7 °F 59.0 °F 27% 29.74 in 10.0 mi West 4.6 mph - N/A   Clear
9:52 PM 96.1 °F 96.4 °F 61.0 °F 31% 29.76 in 10.0 mi SSW 8.1 mph - N/A   Clear
10:52 PM 96.1 °F 96.4 °F 61.0 °F 31% 29.76 in 10.0 mi West 10.4 mph - N/A   Clear
11:52 PM 93.0 °F 92.7 °F 60.1 °F 33% 29.77 in 10.0 mi ESE 5.8 mph - N/A   Clear